Tracking 30923 objects as of 1-Jul-2025
HD Live streaming from Space Station
objects crossing your sky now

STARLINK-4494

Track STARLINK-4494 now!
10-day predictions
STARLINK-4494 is classified as:


NORAD ID: 53558
Int'l Code: 2022-101AH
Perigee: 545.9 km
Apogee: 547.9 km
Inclination: 53.2 °
Period: 95.4 minutes
Semi major axis: 6917 km
RCS: Unknown
Launch date: August 19, 2022
Source: United States (US)
Launch site: AIR FORCE EASTERN TEST RANGE (AFETR)
Your satellite tracking list
COSMOS 1818 COOLANT
Track 1 satellite(s)




NASA's NSSDC Master Catalog

Two Line Element Set (TLE):
1 53558U 22101AH  25181.94165653  .00000422  00000-0  44632-4 0  9999
2 53558  53.2170 108.9827 0001404  90.2589 269.8564 15.08841046159038
Source of the keplerian elements: AFSPC